Вернуться в каталог

FENGYUN 1C DEB

АктивенSSO
NORAD 30887·DEBRIS·🇨🇳 China

Запущен May 10, 1999 с Taiyuan Satellite Launch Center

Loading…

Ближайшие Пролёты (ближайшие 24 часа)

TLE

СвежийSource: Space-Track

Эпоха: Sep 14, 2026, 21:16 UTC

1 30887U 99025AXZ 26257.88638448  .00002218  00000-0  41496-3 0  9992
2 30887  98.3334 314.7583 0260313 168.1832 192.5632 14.46363959 21116

Отслеживайте FENGYUN 1C DEB в реальном времени с AllMySat

Download on the App Store